Regional Weather Roundup
Issued by NWS Raleigh/Durham, NC

Home | Current Version | Previous Version | Text Only | Print | Product List | Glossary On
Versions: 1 2 3 4 5 6 7 8 9 10 11 12 13 14 15 16 17 18 19 20 21 22 23 24 25 26 27 28 29 30 31 32 33 34 35 36 37 38 39 40 41 42 43 44 45 46 47 48 49 50
000
ASUS42 KRAH 181610
RWRRAH
NORTH CAROLINA WEATHER ROUNDUP
NATIONAL WEATHER SERVICE RALEIGH NC
1200 PM EDT SAT APR 18 2015

NOTE: "FAIR" INDICATES FEW OR NO CLOUDS BELOW 12,000 FEET WITH NO
SIGNIFICANT WEATHER AND/OR OBSTRUCTIONS TO VISIBILITY.

NCZ001-053-055-056-065-067-181700-
WESTERN NORTH CAROLINA

CITY           SKY/WX    TMP DP  RH WIND       PRES   REMARKS
ASHEVILLE      MOSUNNY   71  53  52 VRB5      30.05F
JEFFERSON      CLOUDY    66  49  53 E3        30.10S
MORGANTON      CLOUDY    70  56  61 E5        30.07F
HICKORY        CLOUDY    73  57  57 NE10      30.02F
RUTHERFORDTON  CLOUDY    75  59  58 E8        30.03S
MOUNT AIRY     MOSUNNY   75  59  57 SE7       30.05F
BOONE          PTSUNNY   67  52  57 E5        30.10F
$$

NCZ021-022-025-041-071-084-088-181700-
CENTRAL NORTH CAROLINA

CITY           SKY/WX    TMP DP  RH WIND       PRES   REMARKS
CHARLOTTE      CLOUDY    73  61  65 NE5       30.02S
GREENSBORO     MOSUNNY   75  61  60 NE7       30.02S
WINSTON-SALEM  MOSUNNY   75  59  57 NE9       30.03F
RALEIGH-DURHAM PTSUNNY   75  61  61 E6        30.02S
FORT BRAGG     PTSUNNY   73  64  73 VRB1      30.00S
FAYETTEVILLE   PTSUNNY   75  64  68 CALM      30.00S
BURLINGTON     PTSUNNY   78  62  57 E6        30.01S
LAURINBURG     MOSUNNY   73  63  70 CALM      30.01F
$$

NCZ011-015-027-028-043-044-047-080-103-181700-
NORTHEASTERN NORTH CAROLINA

CITY           SKY/WX    TMP DP  RH WIND       PRES   REMARKS
ROCKY MT-WILSO MOSUNNY   73  64  73 CALM      30.02R
GREENVILLE     MOSUNNY   73  63  68 CALM      30.02S
WASHINGTON     PTSUNNY   75  64  70 CALM      30.01R
ELIZABETH CITY MOSUNNY   79  64  60 CALM      29.99S
MANTEO         CLOUDY    75  64  69 N6        30.00S
CAPE HATTERAS  CLOUDY    70  63  78 VRB5      30.00S
$$

NCZ078-087-090-091-093-098-101-181700-
SOUTHEASTERN NORTH CAROLINA

CITY           SKY/WX    TMP DP  RH WIND       PRES   REMARKS
LUMBERTON      PTSUNNY   72  66  81 SE6       30.01S
GOLDSBORO      LGT RAIN  77  65  66 CALM      29.99S
KINSTON        MOSUNNY   75  64  69 CALM      30.01S
KENANSVILLE    CLOUDY    70  66  85 CALM      30.03S
NEW BERN       CLOUDY    75  64  68 CALM      30.01S
CHERRY POINT   CLOUDY    74  65  73 CALM      30.01S
BEAUFORT       CLOUDY    71  68  90 SW6       30.00S
JACKSONVILLE   PTSUNNY   71  65  81 CALM      30.01R
WILMINGTON     LGT RAIN  70  66  87 SE6       30.02R
$$




USA.gov is the U.S. government's official web portal to all federal, state and local government web resources and services.